[[{"header":{"parameterUnit":"m.s-1","parameterCategory":1,"la1":30.2991,"la2":30.254,"lo1":-89.0895,"lo2":-89.0444,"dy":0.0017,"dx":0.0017,"nx":28,"ny":28,"refTime":"2025-03-20T03:00:00:Z","depth":0,"parameterNumber":2,"parameterNumberName":"U-component_of_WINDS"},"data":[0,0,0,0,0,0,0,0,0,0,0,0,0,0,0,0,0,0,0,0,0,0,0,0,0,0,0,0,0,0,0,0,0,0,0,0,0,0,0,0,0,0,0,0,0,0,0,0,0,0,0,0,0,0,0,0,0,0,-2.9211,-2.9211,0,-2.9214,-2.9214,-2.9214,-2.9171,-2.917,-2.9169,-2.9168,-2.917,-2.9172,-2.9173,0,0,0,0,0,0,0,0,0,0,0,0,0,-2.9167,-2.9168,-2.9211,-2.9211,-2.9211,-2.9214,-2.9214,-2.9214,-2.9171,-2.917,-2.9169,-2.9167,-2.917,-2.9171,-2.9173,0,0,0,0,0,0,0,0,0,0,0,0,0,-2.918,-2.9169,-2.9211,-2.919,-2.9188,-2.9214,-2.9214,-2.9214,-2.9172,-2.917,-2.9168,-2.9167,-2.917,-2.9171,-2.9173,-2.9219,0,0,-2.9178,-2.9179,0,0,0,0,0,0,0,0,-2.9179,-2.9182,-2.9193,-2.9192,-2.919,-2.919,-2.92,-2.9216,-2.9172,-2.9178,-2.9168,-2.9166,-2.9178,-2.9179,-2.9184,-2.9219,-2.9219,-2.9178,-2.918,-2.918,-2.9181,0,0,0,0,0,0,0,-2.9179,-2.9181,-2.9212,-2.9193,-2.9191,-2.918,-2.918,-2.9203,-2.9188,-2.9177,-2.9174,-2.9175,-2.9177,-2.9182,-2.9184,-2.9219,-2.9178,-2.918,-2.9181,-2.9182,-2.9292,-2.9294,0,0,0,0,0,0,-2.9181,-2.9181,-2.9212,-2.9212,-2.918,-2.9183,-2.9182,-2.9192,-2.9188,-2.9185,-2.9177,-2.9173,-2.918,-2.9182,-2.9183,-2.9237,-2.918,-2.9182,-2.9183,-2.929,-2.9292,-2.9294,0,0,0,0,0,0,-2.918,-2.9184,-2.9212,-2.9196,-2.9198,-2.9185,-2.9196,-2.9193,-2.9198,-2.9187,-2.9184,-2.9185,-2.9179,-2.9181,-2.921,-2.9236,-2.9183,-2.9184,-2.9288,-2.9291,-2.9293,-2.9344,0,0,0,0,0,0,-2.9179,-2.9184,-2.9201,-2.9196,-2.92,-2.9239,-2.9198,-2.9194,-2.9201,-2.9197,-2.9194,-2.9192,-2.9178,-2.9208,-2.9212,-2.9238,-2.9186,-2.9285,-2.9289,-2.9292,-2.934,-2.9348,-2.9355,0,0,0,0,0,-2.9177,-2.9215,-2.9202,-2.9206,-2.9221,-2.9241,-2.9242,-2.9226,-2.9203,-2.9221,-2.9214,-2.9192,-2.9233,-2.9211,-2.9216,-2.9242,-2.9284,-2.9288,-2.9292,-2.9336,-2.9346,-2.9355,0,0,0,0,0,0,-2.9223,-2.9214,-2.92,-2.9237,-2.924,-2.9233,-2.9254,-2.9237,-2.9246,-2.9241,-2.922,-2.9219,-2.9252,-2.925,-2.9226,-2.9286,-2.9254,-2.926,-2.9286,-2.9296,-2.9303,-2.9303,-2.9187,0,0,0,0,0,-2.9237,-2.9254,-2.9245,-2.9279,-2.9281,-2.9268,-2.9276,-2.9263,-2.9265,-2.9266,-2.9261,-2.9264,-2.9277,-2.9286,-2.9298,-2.9339,-2.9338,-2.936,-2.9367,-2.9373,-2.9378,-2.94,-2.9409,-2.9308,-2.9308,-2.9308,0,0,-2.9267,-2.9264,-2.9276,-2.9288,-2.9289,-2.9307,-2.9269,-2.9289,-2.9302,-2.9269,-2.9296,-2.9293,-2.9294,-2.933,-2.9345,-2.9329,-2.9406,-2.9379,-2.9384,-2.9385,-2.9405,-2.9415,-2.9423,-2.9311,-2.9311,-2.931,0,0,-2.933,-2.933,-2.9358,-2.936,-2.9361,-2.9352,-2.9359,-2.9355,-2.9352,-2.9379,-2.9354,-2.9369,-2.9393,-2.9395,-2.9399,-2.9464,-2.9444,-2.9469,-2.9508,-2.953,-2.9538,-2.9545,-2.9568,-2.9576,-2.9473,-2.9474,-2.9474,0,-2.9367,-2.9393,-2.9375,-2.9397,-2.9403,-2.9374,-2.9402,-2.9404,-2.941,-2.9414,-2.9396,-2.9426,-2.9424,-2.946,-2.9476,-2.948,-2.9487,-2.9469,-2.9538,-2.9545,-2.9551,-2.9573,-2.9582,-2.9477,-2.9476,-2.9476,-2.9476,0,-2.9438,-2.9456,-2.9479,-2.9485,-2.9494,-2.9519,-2.9504,-2.9515,-2.9502,-2.9494,-2.9523,-2.9521,-2.9531,-2.9539,-2.9526,-2.9573,-2.9563,-2.9542,-2.9509,-2.9564,-2.9584,-2.9592,-2.9481,-2.948,-2.9479,-2.9478,0,0,-2.9529,-2.9526,-2.9534,-2.9537,-2.9537,-2.9551,-2.9574,-2.9585,-2.9595,-2.96,-2.9619,-2.964,-2.9621,-2.9626,-2.9613,-2.9632,-2.9683,-2.9608,-2.9608,-2.9622,-2.9735,-2.975,-2.976,-2.967,-2.9671,-2.9673,-2.9734,0,-2.9591,-2.9631,-2.9616,-2.9658,-2.9675,-2.9647,-2.9668,-2.967,-2.9664,-2.9678,-2.9671,-2.9686,-2.9659,-2.9662,-2.968,-2.9673,-2.9705,-2.9668,-2.9687,-2.9688,-2.9688,-2.9771,-2.9787,-2.9846,-2.9742,-2.9743,-2.9744,0,-2.9668,-2.9676,-2.972,-2.9717,-2.9723,-2.9743,-2.9751,-2.9765,-2.9767,-2.9761,-2.9767,-2.9749,-2.9773,-2.9741,-2.9772,-2.9747,-2.9754,-2.9752,-2.9754,-2.9755,-2.972,-2.9774,-2.9864,-2.9873,-2.9757,-2.9756,-2.9755,0,-2.973,-2.9752,-2.9781,-2.9784,-2.9782,-2.9796,-2.9795,-2.9796,-2.9803,-2.9811,-2.9816,-2.9826,-2.9832,-2.984,-2.9826,-2.9804,-2.986,-2.9827,-2.9856,-2.9856,-2.9868,-2.9868,-2.9961,-2.9873,-2.9873,-2.9873,-2.9873,0,-2.98,-2.9828,-2.9809,-2.9827,-2.9857,-2.9839,-2.987,-2.9866,-2.9867,-2.9883,-2.986,-2.9876,-2.9857,-2.9871,-2.986,-2.9888,-2.9891,-2.9887,-2.9883,-2.9889,-2.9889,-2.9893,-2.9888,-2.9875,-2.9875,-2.9874,-2.9874,0,-2.9874,-2.9863,-2.9893,-2.9888,-2.9888,-2.991,-2.9906,-2.9922,-2.9915,-2.9936,-2.994,-2.9929,-2.9944,-2.9931,-2.9946,-2.9939,-2.9976,-2.9967,-2.9975,-2.9973,-3.0002,-3.0,-3.0101,-3.0113,-3.0018,-3.0019,-3.002,0,-2.9919,-2.994,-2.9938,-2.9948,-2.9949,-2.9965,-2.9973,-2.9956,-2.9965,-2.9969,-2.9985,-2.9998,-3.0008,-3.0034,-3.0027,-3.0039,-3.003,-3.0064,-3.0031,-3.0036,-3.003,-3.0029,-3.0031,-3.0071,-3.0072,-3.0073,-3.0074,0,-3.0001,-2.9995,-3.0007,-3.0018,-3.0028,-3.0035,-3.0041,-3.005,-3.0033,-3.0044,-3.006,-3.0068,-3.0083,-3.0097,-3.0106,-3.0105,-3.0087,-3.0084,-3.0091,-3.0097,-3.0101,-3.0099,-2.9993,-3.0082,-3.0081,-3.008,-3.008,-3.008,-3.0062,-3.0079,-3.0081,-3.0095,-3.0098,-3.0104,-3.0119,-3.0114,-3.0126,-3.0138,-3.0127,-3.0146,-3.0148,-3.0158,-3.016,-3.0174,-3.016,-3.017,-3.0173,-3.0176,-3.018,-3.0099,-3.0176,-3.0176,-3.0175,-3.0175,-3.0175,0,-3.0142,-3.0142,-3.0156,-3.0164,-3.0176,-3.0158,-3.0163,-3.0174,-3.0191,-3.0194,-3.0205,-3.0223,-3.0236,-3.023,-3.0242,-3.0255,-3.0247,-3.0258,-3.0257,-3.0257,-3.0192,-3.0185,-3.0265,-3.0265,-3.0265,-3.0265,-3.0265,-3.0265,-3.0185,-3.0214,-3.0207,-3.0237,-3.0236,-3.0255,-3.0259,-3.0265,-3.0267,-3.0289,-3.03,-3.0296,-3.0295,-3.0307,-3.0318,-3.0316,-3.0321,-3.0336,-3.0331,-3.0271,-3.0262,-3.0253,-3.0246,-3.0338,-3.0338,-3.0395,-3.0395,-3.0396]},{"header":{"parameterUnit":"m.s-1","parameterCategory":1,"la1":30.2991,"la2":30.254,"lo1":-89.0895,"lo2":-89.0444,"dy":0.0017,"dx":0.0017,"nx":28,"ny":28,"refTime":"2025-03-20T03:00:00:Z","depth":0,"parameterNumber":3,"parameterNumberName":"V-component_of_WINDS"},"data":[0,0,0,0,0,0,0,0,0,0,0,0,0,0,0,0,0,0,0,0,0,0,0,0,0,0,0,0,0,0,0,0,0,0,0,0,0,0,0,0,0,0,0,0,0,0,0,0,0,0,0,0,0,0,0,0,0,0,-1.3963,-1.3963,0,-1.3998,-1.3998,-1.3999,-1.3984,-1.3983,-1.3982,-1.3981,-1.4017,-1.4019,-1.402,0,0,0,0,0,0,0,0,0,0,0,0,0,-1.3883,-1.3885,-1.3963,-1.3963,-1.3964,-1.3998,-1.3998,-1.3999,-1.3984,-1.3983,-1.3982,-1.3981,-1.4016,-1.4019,-1.4021,0,0,0,0,0,0,0,0,0,0,0,0,0,-1.3918,-1.3885,-1.3963,-1.3961,-1.3961,-1.3998,-1.3998,-1.3999,-1.3984,-1.3983,-1.3982,-1.3981,-1.4016,-1.4018,-1.4021,-1.4062,0,0,-1.4029,-1.403,0,0,0,0,0,0,0,0,-1.3916,-1.3921,-1.396,-1.3961,-1.3961,-1.3985,-1.3983,-1.402,-1.3985,-1.3975,-1.3981,-1.398,-1.4007,-1.4011,-1.402,-1.4064,-1.4065,-1.4029,-1.4031,-1.4032,-1.4032,0,0,0,0,0,0,0,-1.3913,-1.3919,-1.3977,-1.3961,-1.3961,-1.3958,-1.3961,-1.399,-1.3998,-1.3976,-1.3975,-1.3979,-1.4007,-1.4017,-1.4021,-1.4066,-1.4029,-1.4031,-1.4033,-1.4034,-1.4145,-1.4146,0,0,0,0,0,0,-1.3911,-1.3917,-1.3976,-1.3978,-1.3935,-1.396,-1.3964,-1.3979,-1.3998,-1.3999,-1.398,-1.3979,-1.4014,-1.4018,-1.4022,-1.4071,-1.4032,-1.4034,-1.4036,-1.4143,-1.4145,-1.4147,0,0,0,0,0,0,-1.3909,-1.3916,-1.3974,-1.3947,-1.3954,-1.3963,-1.3979,-1.398,-1.399,-1.4001,-1.4002,-1.3989,-1.4013,-1.4018,-1.4052,-1.4072,-1.4035,-1.4038,-1.4142,-1.4144,-1.4146,-1.4171,0,0,0,0,0,0,-1.3907,-1.3916,-1.3932,-1.3948,-1.3956,-1.4004,-1.3981,-1.3982,-1.3995,-1.3993,-1.401,-1.4011,-1.4012,-1.4048,-1.4055,-1.4075,-1.404,-1.414,-1.4143,-1.4145,-1.4168,-1.4173,-1.4178,0,0,0,0,0,-1.3904,-1.3937,-1.3933,-1.394,-1.3976,-1.4005,-1.401,-1.401,-1.3996,-1.4012,-1.4019,-1.4011,-1.4069,-1.4052,-1.4059,-1.4081,-1.4139,-1.4142,-1.4145,-1.4166,-1.4172,-1.4178,0,0,0,0,0,0,-1.3924,-1.3939,-1.3934,-1.3974,-1.3988,-1.4003,-1.4023,-1.4017,-1.4036,-1.4033,-1.4033,-1.4037,-1.4072,-1.408,-1.406,-1.4121,-1.4102,-1.4106,-1.4115,-1.4121,-1.4126,-1.4124,-1.4042,0,0,0,0,0,-1.3932,-1.3955,-1.3968,-1.4001,-1.4008,-1.4014,-1.4027,-1.4026,-1.4041,-1.4048,-1.4057,-1.4072,-1.4093,-1.4108,-1.4128,-1.4169,-1.4172,-1.4187,-1.4192,-1.4196,-1.42,-1.4222,-1.4229,-1.4157,-1.4157,-1.4157,0,0,-1.3951,-1.3962,-1.3977,-1.4005,-1.4016,-1.404,-1.402,-1.4045,-1.4063,-1.4051,-1.4084,-1.4091,-1.4108,-1.4145,-1.4162,-1.4153,-1.4221,-1.42,-1.4203,-1.4205,-1.4226,-1.4233,-1.4239,-1.4159,-1.4159,-1.4158,0,0,-1.3996,-1.4007,-1.4036,-1.4048,-1.4065,-1.4069,-1.4076,-1.4091,-1.4096,-1.4128,-1.412,-1.4141,-1.4178,-1.419,-1.4201,-1.4251,-1.4244,-1.4258,-1.4283,-1.4305,-1.431,-1.4315,-1.4333,-1.434,-1.4262,-1.4262,-1.4262,0,-1.4017,-1.4052,-1.4052,-1.4078,-1.4091,-1.4081,-1.4111,-1.4122,-1.4145,-1.4154,-1.4143,-1.4189,-1.42,-1.424,-1.4252,-1.4261,-1.4269,-1.4256,-1.4309,-1.4314,-1.4319,-1.4336,-1.4343,-1.4263,-1.4263,-1.4263,-1.4263,0,-1.4077,-1.4101,-1.4122,-1.4145,-1.416,-1.4187,-1.4191,-1.4206,-1.4204,-1.4209,-1.4242,-1.4254,-1.4277,-1.4286,-1.4284,-1.4326,-1.432,-1.4309,-1.429,-1.4328,-1.4344,-1.435,-1.4265,-1.4265,-1.4264,-1.4264,0,0,-1.4136,-1.4157,-1.4165,-1.4175,-1.4193,-1.4212,-1.4239,-1.4261,-1.4275,-1.4291,-1.4313,-1.4345,-1.4335,-1.4348,-1.4347,-1.4366,-1.4404,-1.4353,-1.4353,-1.4362,-1.4451,-1.4459,-1.4467,-1.44,-1.4401,-1.4402,-1.445,0,-1.4182,-1.423,-1.423,-1.4274,-1.4297,-1.4288,-1.4312,-1.4325,-1.433,-1.435,-1.4356,-1.4378,-1.4363,-1.4371,-1.4389,-1.4396,-1.4422,-1.4392,-1.4421,-1.4422,-1.4417,-1.4475,-1.4484,-1.4529,-1.4456,-1.4457,-1.4458,0,-1.4244,-1.4262,-1.4308,-1.4323,-1.4332,-1.4353,-1.4374,-1.4393,-1.4408,-1.441,-1.4424,-1.442,-1.4448,-1.4427,-1.4465,-1.4444,-1.4456,-1.4461,-1.4463,-1.4466,-1.4442,-1.448,-1.4543,-1.455,-1.4468,-1.4467,-1.4466,0,-1.4282,-1.4318,-1.435,-1.4359,-1.4377,-1.4392,-1.4401,-1.4414,-1.4428,-1.4445,-1.4454,-1.4475,-1.4486,-1.4502,-1.4504,-1.4489,-1.4542,-1.4521,-1.4545,-1.4545,-1.4557,-1.4556,-1.4623,-1.4564,-1.4564,-1.4564,-1.4563,0,-1.4335,-1.4363,-1.4368,-1.4388,-1.4419,-1.4419,-1.4451,-1.4458,-1.447,-1.4491,-1.4485,-1.4504,-1.4505,-1.4526,-1.4527,-1.4558,-1.4563,-1.4566,-1.4566,-1.4567,-1.4567,-1.4575,-1.4572,-1.4565,-1.4565,-1.4565,-1.4564,0,-1.4383,-1.4388,-1.4422,-1.4436,-1.4441,-1.4463,-1.4475,-1.4494,-1.4498,-1.4525,-1.4531,-1.4538,-1.4562,-1.4565,-1.4592,-1.4593,-1.4631,-1.4627,-1.4626,-1.4625,-1.4649,-1.4647,-1.4723,-1.4734,-1.4668,-1.4668,-1.4669,0,-1.4417,-1.4439,-1.4455,-1.4469,-1.4478,-1.45,-1.4513,-1.4514,-1.4528,-1.4547,-1.4564,-1.4586,-1.4605,-1.4643,-1.465,-1.4671,-1.4668,-1.4694,-1.4671,-1.4671,-1.4669,-1.4668,-1.467,-1.4698,-1.4699,-1.47,-1.47,0,-1.4476,-1.4477,-1.4497,-1.4517,-1.4534,-1.455,-1.4565,-1.4577,-1.4579,-1.4596,-1.462,-1.4634,-1.4662,-1.4684,-1.4705,-1.4713,-1.4707,-1.4707,-1.4713,-1.4715,-1.4713,-1.4714,-1.4638,-1.4705,-1.4705,-1.4704,-1.4704,-1.4704,-1.4518,-1.4537,-1.4551,-1.4574,-1.4585,-1.46,-1.4618,-1.4625,-1.4645,-1.4668,-1.4667,-1.4693,-1.4707,-1.4735,-1.4744,-1.4765,-1.4756,-1.4766,-1.4768,-1.4771,-1.4773,-1.4709,-1.4768,-1.4768,-1.4768,-1.4768,-1.4768,0,-1.4577,-1.4585,-1.4606,-1.4628,-1.4645,-1.4638,-1.4654,-1.4669,-1.4693,-1.4707,-1.4725,-1.4752,-1.4774,-1.4783,-1.4805,-1.4819,-1.4817,-1.4825,-1.4824,-1.4826,-1.4779,-1.4772,-1.4827,-1.4827,-1.4827,-1.4827,-1.4826,-1.4826,-1.4609,-1.4641,-1.4644,-1.4681,-1.4689,-1.4715,-1.4725,-1.4739,-1.475,-1.4781,-1.4799,-1.4805,-1.4817,-1.4839,-1.4859,-1.4861,-1.4869,-1.4878,-1.4879,-1.4835,-1.4829,-1.4824,-1.4817,-1.488,-1.488,-1.4924,-1.4925,-1.4925]}]]